USA 253

导读

USA 253是美国于北京时间2014年7月28日发射的地球同步轨道太空态势感知计划(GSSAP)首对卫星之一,属于美军天基太空监视卫星星座,为战略司令部太空监视行动提供支撑。它运行在近地球同步轨道,主要执行对其他太空物体的监视任务,长期针对中俄等国卫星开展近距离抵近侦察,详细技术指标至今仍处于保密状态。2015年9月该卫星已具备初始作战能力,至今仍在轨运行。

Basic Information
目录编号:
40099
目录名称:
USA 253
国际标识:
2014-043A
轨道中心:
EARTH
卫星名称:
USA 253
卫星全名:
--
卫星状态:
在轨 (已飞行4369 天)
发射日期:
2014-07-28 UTC
国别 :
美国 (US)
星等 :
--
Orbit Information
数据来源 国际轨道数据
星历时间: 2026-07-13T07:46:47+0800
1天前
查看轨道信息
半长轴: 43174.616km
偏心率: 0.0003292
轨道倾角: 5.569°
近地点辐角 84.491°
升交点赤经 74.937°
平近点角 129.139°
近地点: 36782.265km
远地点: 36810.693km
周期: 1487.998分钟
每日圈数: 0.967743
Detailed Information
使用方式:
暂无
2D Orbit Map
3D Orbit Map
Orbit Altitude Analysis Chart
Orbit Inclination Analysis Chart
Orbit Comprehensive Analysis Chart
View Comprehensive Chart